This is the latest recevied weather packets stored in our database for station/object K9RJT. If no packets are shown the sender has not sent any weather packets the latest 10 day(s).
| Time | Temp. | Humidity | Pressure | Rain* | Wind** | Luminosity | Snow |
|---|---|---|---|---|---|---|---|
| 1777694097 | 21.11° C | 39% | 1009.1 hPa | 0 mm | - | 0 W/m² | - |
| 1777693795 | 21.11° C | 37% | 1008.7 hPa | 0 mm | - | 0 W/m² | - |
| 1777693494 | 21.11° C | 37% | 1008.5 hPa | 0 mm | - | 0 W/m² | - |
| 1777693192 | 21.11° C | 37% | 1008.4 hPa | 0 mm | - | 0 W/m² | - |
| 1777692889 | 21.11° C | 38% | 1007.9 hPa | 0 mm | - | 0 W/m² | - |
| 1777692585 | 21.67° C | 37% | 1008 hPa | 0 mm | - | 0 W/m² | - |
| 1777692282 | 21.67° C | 36% | 1007.8 hPa | 0 mm | - | 0 W/m² | - |
| 1777691979 | 21.67° C | 35% | 1008 hPa | 0 mm | - | 0 W/m² | - |
| 1777691678 | 22.22° C | 34% | 1008.2 hPa | 0 mm | - | 1 W/m² | - |
| 1777691375 | 22.78° C | 31% | 1008.1 hPa | 0 mm | - | 1 W/m² | - |
| 1777691074 | 22.78° C | 27% | 1007.8 hPa | 0 mm | - | 1 W/m² | - |
| 1777690771 | 22.78° C | 27% | 1007.5 hPa | 0 mm | - | 2 W/m² | - |
| 1777690468 | 22.78° C | 27% | 1007.8 hPa | 0 mm | - | 3 W/m² | - |
| 1777690166 | 23.33° C | 27% | 1007.3 hPa | 0 mm | - | 4 W/m² | - |
| 1777689864 | 23.33° C | 27% | 1007.4 hPa | 0 mm | - | 5 W/m² | - |
| 1777689561 | 23.89° C | 25% | 1007.2 hPa | 0 mm | - | 7 W/m² | - |
| 1777689259 | 23.89° C | 24% | 1007.3 hPa | 0 mm | - | 8 W/m² | - |
| 1777688956 | 23.89° C | 24% | 1007.4 hPa | 0 mm | - | 10 W/m² | - |
| 1777688652 | 24.44° C | 23% | 1007.4 hPa | 0 mm | - | 11 W/m² | - |
| 1777688349 | 24.44° C | 22% | 1007.1 hPa | 0 mm | - | 14 W/m² | - |
| 1777688047 | 24.44° C | 22% | 1007.2 hPa | 0 mm | - | 17 W/m² | - |
| 1777687744 | 24.44° C | 21% | 1007.1 hPa | 0 mm | - | 15 W/m² | - |
| 1777687442 | 24.44° C | 23% | 1007.2 hPa | 0 mm | - | 16 W/m² | - |
| 1777687138 | 24.44° C | 22% | 1007.3 hPa | 0 mm | - | 20 W/m² | - |
| 1777686835 | 24.44° C | 21% | 1007.1 hPa | 0 mm | - | 20 W/m² | - |
* Rain latest hour (hover to see other rain measurements)
** Current wind speed in m/s (hover to see current wind gust speed)